NORTHERN QUEENS  -  Air Quality Alert Air Quality Alert        SOUTHERN QUEENS  -  Air Quality Alert Air Quality Alert      

Active alerts

Northern Queens
  Details for Northern Queens Air Quality Alert
Southern Queens
  Details for Southern Queens Air Quality Alert


WXM80 ListenWXM80 Stop

You find our weather info also at:

UK Metoffice

WeatherCloud

Weather Underground

Northeastern Weather Network

AWEKAS

Citizen Weather Observer Program (CWOP)

HAMweather, WeatherForYou, PWS Weather


Weather Underground History page Text

Daily Summary for September 30, 2017 Units:  Metric    English   Both
« Previous Day
Next Day »
Daily Weekly Monthly Yearly Custom
  High: Low: Average:
Temperature: 15.4 °C 12.1 °C 13.6 °C
Dew Point: 13.7 °C 9.7 °C 11.9 °C
Humidity: 96 % 81 % 89 %
Wind Speed: 20.4 km/h 0 km/h 7.2 km/h
Wind Gust: 33.3 km/h - -
Wind:- - East
Pressure: 1023.2 hPa 1011.4 hPa -
Precipitation: 36.83 mm    
Historical Graphs
 
 
Tabular Data for September 30, 2017
Time Temperature Dew Point Pressure Wind Wind Speed Wind Gust Humidity Rainfall Rate (Hourly)
00:04 12.4 °C 10.2 °C 1012.4 hPa Calm     86 % 0 mm
00:09 12.4 °C 10.2 °C 1012.4 hPa Calm     86 % 0 mm
00:14 12.4 °C 9.9 °C 1012.4 hPa Calm     85 % 0 mm
00:19 12.4 °C 10 °C 1012.4 hPa Calm     85 % 0 mm
00:24 12.4 °C 9.8 °C 1012.4 hPa Calm     84 % 0 mm
00:29 12.4 °C 9.8 °C 1012.4 hPa Calm     84 % 0 mm
00:34 12.3 °C 9.7 °C 1012.4 hPa Calm     84 % 0 mm
00:39 12.3 °C 9.7 °C 1012.4 hPa Calm     84 % 0 mm
00:44 12.3 °C 9.7 °C 1012.4 hPa Calm     84 % 0 mm
00:49 12.3 °C 9.7 °C 1012.4 hPa Calm     84 % 0 mm
00:54 12.3 °C 9.8 °C 1012.4 hPa Calm     85 % 0 mm
00:59 12.3 °C 9.8 °C 1012.8 hPa Calm     85 % 0 mm
01:04 12.3 °C 9.8 °C 1012.8 hPa Calm     85 % 0 mm
01:09 12.3 °C 9.9 °C 1012.8 hPa Calm     85 % 0 mm
01:10 12.3 °C 9.9 °C 1012.8 hPa Calm     85 % 0 mm
01:16 12.4 °C 10.1 °C 1012.8 hPa Calm     86 % 0 mm
01:21 12.5 °C 10.2 °C 1012.8 hPa Calm     86 % 0 mm
01:26 12.6 °C 10.5 °C 1012.8 hPa Calm     87 % 0 mm
01:31 12.7 °C 10.8 °C 1012.8 hPa Calm     88 % 0 mm
01:36 12.8 °C 10.8 °C 1012.8 hPa Calm     88 % 0 mm
01:41 12.8 °C 10.9 °C 1012.4 hPa Calm     88 % 0 mm
01:46 12.9 °C 10.9 °C 1012.8 hPa Calm     88 % 0 mm
01:51 12.9 °C 11 °C 1012.8 hPa Calm     88 % 0 mm
01:56 13 °C 11.1 °C 1012.8 hPa Calm     88 % 0 mm
02:01 13.1 °C 11.1 °C 1012.8 hPa Calm     88 % 0 mm
02:06 13.1 °C 11.1 °C 1012.8 hPa Calm     88 % 0 mm
02:11 13.1 °C 11.2 °C 1012.8 hPa Calm     88 % 0 mm
02:16 13.2 °C 11.2 °C 1012.8 hPa Calm     88 % 0 mm
02:21 13.2 °C 11.4 °C 1012.8 hPa Calm     89 % 0 mm
02:26 13.2 °C 11.4 °C 1012.8 hPa Calm     89 % 0 mm
02:31 13.3 °C 11.5 °C 1012.4 hPa Calm     89 % 0 mm
02:36 13.3 °C 11.5 °C 1012.4 hPa Calm     89 % 0 mm
02:41 13.3 °C 11.5 °C 1012.4 hPa Calm     89 % 0 mm
02:46 13.3 °C 11.6 °C 1012.1 hPa Calm     89 % 0 mm
02:51 13.3 °C 11.6 °C 1012.1 hPa Calm     89 % 0 mm
02:56 13.3 °C 11.6 °C 1011.7 hPa Calm     89 % 0 mm
03:01 13.4 °C 11.6 °C 1011.7 hPa Calm     89 % 0 mm
03:06 13.4 °C 11.6 °C 1011.7 hPa Calm     89 % 0 mm
03:11 13.4 °C 11.6 °C 1011.7 hPa Calm     89 % 0 mm
03:16 13.4 °C 11.6 °C 1011.7 hPa Calm     89 % 0 mm
03:21 13.4 °C 11.6 °C 1011.7 hPa Calm     89 % 0 mm
03:26 13.4 °C 11.7 °C 1012.1 hPa Calm     89 % 0 mm
03:31 13.4 °C 11.7 °C 1011.7 hPa Calm     89 % 0 mm
03:36 13.4 °C 11.7 °C 1011.7 hPa Calm     89 % 0 mm
03:41 13.4 °C 11.8 °C 1011.7 hPa Calm     90 % 0 mm
03:46 13.4 °C 11.8 °C 1011.7 hPa Calm     90 % 0 mm
03:51 13.4 °C 11.8 °C 1011.7 hPa Calm     90 % 0 mm
03:56 13.4 °C 11.8 °C 1011.7 hPa Calm     90 % 0 mm
04:01 13.3 °C 11.7 °C 1011.7 hPa Calm     90 % 0 mm
04:06 13.3 °C 11.7 °C 1011.4 hPa Calm     90 % 0 mm
04:11 13.3 °C 11.7 °C 1011.4 hPa SSE 0.8 km/h 1.9 km/h 90 % 0 mm
04:16 13.3 °C 11.9 °C 1011.4 hPa Calm     91 % 0 mm
04:22 13.3 °C 11.9 °C 1011.7 hPa Calm   1.6 km/h 91 % 0 mm
04:27 13.4 °C 12.1 °C 1011.7 hPa Calm     92 % 0 mm
04:32 13.4 °C 12.1 °C 1011.7 hPa SSE 0.8 km/h 1.9 km/h 92 % 0 mm
04:37 13.4 °C 12.1 °C 1011.7 hPa Calm     92 % 0 mm
04:42 13.4 °C 12.2 °C 1011.7 hPa SSE 2.1 km/h 3.2 km/h 92 % 0 mm
04:47 13.4 °C 12.2 °C 1011.7 hPa SSE 0.2 km/h 1.9 km/h 92 % 0 mm
04:52 13.4 °C 12.2 °C 1011.7 hPa Calm     92 % 0 mm
04:57 13.4 °C 12.2 °C 1011.7 hPa Calm     92 % 0 mm
05:02 13.4 °C 12 °C 1011.7 hPa Calm     91 % 0 mm
05:07 13.4 °C 11.9 °C 1011.7 hPa SSE 0.2 km/h 3.7 km/h 91 % 0 mm
05:12 13.4 °C 11.9 °C 1011.7 hPa Calm     91 % 0 mm
05:17 13.3 °C 11.9 °C 1011.7 hPa Calm     91 % 0 mm
05:22 13.3 °C 11.8 °C 1011.7 hPa Calm     91 % 0 mm
05:27 13.2 °C 11.8 °C 1012.1 hPa Calm     91 % 0 mm
05:32 13.2 °C 11.7 °C 1012.1 hPa Calm     91 % 0 mm
05:37 13.1 °C 11.7 °C 1012.1 hPa Calm     91 % 0 mm
05:42 13.1 °C 11.4 °C 1012.1 hPa Calm     90 % 0 mm
05:47 13 °C 11.4 °C 1012.1 hPa Calm     90 % 0 mm
05:52 12.9 °C 11.5 °C 1012.1 hPa Calm     91 % 0 mm
05:57 12.9 °C 11.5 °C 1012.1 hPa Calm     91 % 0 mm
06:02 12.8 °C 11.4 °C 1012.4 hPa Calm     91 % 0 mm
06:07 12.8 °C 11.2 °C 1012.4 hPa Calm     90 % 0 mm
06:12 12.7 °C 11.1 °C 1012.4 hPa Calm     90 % 0 mm
06:17 12.7 °C 11.1 °C 1012.4 hPa SSE 0.2 km/h 1.9 km/h 90 % 0 mm
06:23 12.6 °C 11.2 °C 1012.4 hPa Calm     91 % 0 mm
06:28 12.6 °C 11.1 °C 1012.4 hPa Calm     91 % 0 mm
06:33 12.5 °C 11.1 °C 1012.4 hPa Calm     91 % 0 mm
06:38 12.4 °C 10.9 °C 1012.4 hPa Calm     91 % 0 mm
06:43 12.3 °C 10.9 °C 1012.4 hPa Calm   1.9 km/h 91 % 0 mm
06:48 12.3 °C 10.8 °C 1012.8 hPa SSE 0.2 km/h 1.9 km/h 91 % 0 mm
06:53 12.2 °C 10.8 °C 1012.4 hPa Calm   1.9 km/h 91 % 0 mm
06:58 12.2 °C 10.9 °C 1012.4 hPa Calm     92 % 0 mm
07:03 12.2 °C 10.9 °C 1012.4 hPa SSE 0.2 km/h 1.9 km/h 92 % 0 mm
07:13 12.1 °C 11 °C 1012.8 hPa Calm     93 % 0 mm
07:18 12.2 °C 11.1 °C 1012.8 hPa Calm     93 % 0 mm
07:23 12.3 °C 11.4 °C 1012.8 hPa Calm     94 % 0 mm
07:28 12.5 °C 11.7 °C 1012.8 hPa North 2.9 km/h 5.6 km/h 95 % 0 mm
07:33 12.8 °C 12.1 °C 1012.8 hPa NNW 0.8 km/h 3.7 km/h 95 % 0 mm
07:43 13.3 °C 12.7 °C 1013.1 hPa NNW 6.3 km/h 14.5 km/h 96 % 0 mm
07:48 13.7 °C 13.1 °C 1013.1 hPa NNE 10 km/h 14.5 km/h 96 % 0 mm
07:53 13.9 °C 13.3 °C 1013.1 hPa North 9.7 km/h 14.8 km/h 96 % 0 mm
07:58 14.1 °C 13.4 °C 1013.1 hPa NNW 13.2 km/h 20.4 km/h 96 % 0 mm
08:03 14.2 °C 13.6 °C 1013.1 hPa NNE 4.3 km/h 11.1 km/h 96 % 0 mm
08:08 14.2 °C 13.6 °C 1013.1 hPa NNE 5.5 km/h 9.3 km/h 96 % 0 mm
08:14 14.3 °C 13.6 °C 1013.1 hPa NE 12.7 km/h 14.5 km/h 95 % 0 mm
08:19 14.4 °C 13.6 °C 1013.1 hPa NE 7.9 km/h 11.3 km/h 95 % 0 mm
08:24 14.5 °C 13.7 °C 1013.1 hPa North 7.4 km/h 13 km/h 95 % 0 mm
08:29 14.6 °C 13.6 °C 1013.1 hPa North 9.3 km/h 14.8 km/h 94 % 0 mm
08:34 14.6 °C 13.6 °C 1013.1 hPa NNE 9.8 km/h 14.8 km/h 94 % 0 mm
08:39 14.6 °C 13.7 °C 1013.4 hPa NNE 8 km/h 13 km/h 94 % 0 mm
08:44 14.7 °C 13.6 °C 1013.4 hPa NNE 8.4 km/h 11.1 km/h 93 % 0 mm
08:49 14.7 °C 13.6 °C 1013.8 hPa North 1.6 km/h 5.6 km/h 93 % 0 mm
08:54 14.7 °C 13.6 °C 1013.4 hPa North 1.3 km/h 5.6 km/h 93 % 0 mm
08:59 14.7 °C 13.6 °C 1013.8 hPa NE 4 km/h 9.7 km/h 93 % 0 mm
09:04 14.7 °C 13.4 °C 1013.4 hPa WNW 1.6 km/h 6.4 km/h 92 % 0 mm
09:09 14.6 °C 13.3 °C 1013.8 hPa West 8 km/h 11.1 km/h 92 % 0 mm
09:14 14.6 °C 13.2 °C 1013.8 hPa NW 1.4 km/h 3.7 km/h 91 % 0 mm
09:19 14.6 °C 13.1 °C 1013.8 hPa WNW 0.6 km/h 3.7 km/h 91 % 0.25 mm
09:24 14.6 °C 13.1 °C 1013.8 hPa WNW 1.3 km/h 3.7 km/h 91 % 1.02 mm
09:29 14.6 °C 13.3 °C 1014.1 hPa West 5.3 km/h 12.9 km/h 92 % 1.78 mm
09:34 14.4 °C 13.2 °C 1013.8 hPa WNW 6.9 km/h 18.5 km/h 92 % 2.79 mm
09:39 14.3 °C 13.1 °C 1013.8 hPa NNW 1.4 km/h 9.3 km/h 92 % 3.56 mm
09:44 14.2 °C 13.1 °C 1013.8 hPa NNE 7.6 km/h 11.3 km/h 93 % 4.57 mm
09:49 14.2 °C 13.1 °C 1013.8 hPa NNW 3.9 km/h 9.3 km/h 93 % 5.33 mm
09:54 14.2 °C 13.2 °C 1014.1 hPa NNE 3.9 km/h 8 km/h 94 % 6.1 mm
09:59 14.2 °C 13.2 °C 1014.1 hPa NNE 1.9 km/h 7.4 km/h 94 % 6.86 mm
10:04 14.1 °C 13.2 °C 1014.1 hPa North 9.2 km/h 11.3 km/h 94 % 7.62 mm
10:09 14 °C 13.1 °C 1014.1 hPa NNE 7.1 km/h 11.1 km/h 94 % 8.13 mm
10:15 13.9 °C 13.2 °C 1014.1 hPa NNW 8.9 km/h 13 km/h 95 % 8.89 mm
10:20 13.9 °C 13.1 °C 1014.1 hPa North 8 km/h 16.7 km/h 95 % 9.4 mm
10:25 13.8 °C 13 °C 1014.1 hPa NNE 5.1 km/h 11.1 km/h 95 % 8.89 mm
10:30 13.7 °C 12.9 °C 1014.4 hPa NW 7.4 km/h 12.9 km/h 95 % 8.64 mm
10:35 13.6 °C 12.8 °C 1014.8 hPa NNW 7.2 km/h 18.5 km/h 95 % 8.13 mm
10:40 13.5 °C 12.6 °C 1014.8 hPa NW 2.6 km/h 16.7 km/h 94 % 7.87 mm
10:45 13.4 °C 12.4 °C 1014.8 hPa North 7.9 km/h 19.3 km/h 94 % 7.62 mm
10:50 13.3 °C 12.6 °C 1014.8 hPa NNW 6 km/h 13 km/h 95 % 7.11 mm
10:55 13.3 °C 12.6 °C 1014.8 hPa ENE 11.4 km/h 19.3 km/h 95 % 7.11 mm
11:00 13.4 °C 12.8 °C 1014.8 hPa NNE 12.6 km/h 20.4 km/h 96 % 6.86 mm
11:05 13.6 °C 12.9 °C 1014.8 hPa North 5.6 km/h 11.1 km/h 96 % 7.11 mm
11:10 13.6 °C 13 °C 1014.8 hPa NNE 9.7 km/h 18.5 km/h 96 % 7.11 mm
11:15 13.7 °C 13.1 °C 1014.8 hPa NNE 10 km/h 16.7 km/h 96 % 7.11 mm
11:20 13.8 °C 13.2 °C 1014.8 hPa NNE 6.6 km/h 16.7 km/h 96 % 7.11 mm
11:25 13.8 °C 13.2 °C 1014.8 hPa NNE 10.8 km/h 14.8 km/h 96 % 7.11 mm
11:30 13.9 °C 13.3 °C 1014.8 hPa NNE 10.8 km/h 20.4 km/h 96 % 7.37 mm
11:35 13.9 °C 13.3 °C 1014.8 hPa NNE 10.8 km/h 18.5 km/h 96 % 7.62 mm
11:40 13.9 °C 13.3 °C 1015.1 hPa NNE 10.1 km/h 13 km/h 96 % 7.62 mm
11:45 13.9 °C 13.3 °C 1015.1 hPa NNE 12.1 km/h 18.5 km/h 96 % 7.62 mm
11:50 14 °C 13.4 °C 1015.1 hPa NNW 4 km/h 13 km/h 96 % 7.87 mm
11:55 14 °C 13.4 °C 1015.5 hPa North 7.6 km/h 11.1 km/h 96 % 7.62 mm
12:00 14.1 °C 13.4 °C 1015.5 hPa NNE 10.3 km/h 20.4 km/h 96 % 7.87 mm
12:05 14.1 °C 13.5 °C 1015.5 hPa NNE 11.1 km/h 31.5 km/h 96 % 7.62 mm
12:10 14.1 °C 13.4 °C 1015.5 hPa NNE 12.6 km/h 18.5 km/h 96 % 7.37 mm
12:11 14.1 °C 13.4 °C 1015.5 hPa North 11.3 km/h 19.3 km/h 96 % 0.25 mm
12:16 14 °C 13.4 °C 1015.5 hPa North 14.5 km/h 25.7 km/h 96 % 0 mm
12:21 13.9 °C 13.3 °C 1015.8 hPa NNE 12.9 km/h 25.7 km/h 96 % 0 mm
12:26 13.8 °C 13.2 °C 1015.8 hPa NNE 12.9 km/h 27.4 km/h 96 % 0.25 mm
12:31 13.7 °C 13.1 °C 1015.8 hPa NNE 8 km/h 22.5 km/h 96 % 0.25 mm
12:36 13.7 °C 13 °C 1015.8 hPa NNE 11.3 km/h 20.9 km/h 96 % 0 mm
12:41 13.6 °C 12.9 °C 1016.1 hPa NNE 12.9 km/h 20.9 km/h 96 % 0 mm
12:46 13.5 °C 12.7 °C 1016.1 hPa NNE 12.9 km/h 22.5 km/h 95 % 0 mm
12:51 13.4 °C 12.6 °C 1016.1 hPa NNE 9.7 km/h 20.9 km/h 95 % 0 mm
12:56 13.3 °C 12.6 °C 1016.1 hPa North 4.8 km/h 19.3 km/h 95 % 0 mm
13:00 13.3 °C 12.7 °C 1015.8 hPa NNW 6.4 km/h 11.3 km/h 96 % 6.6 mm
13:06 13.4 °C 12.8 °C 1016.1 hPa NNE 11.3 km/h 16.1 km/h 96 % 0 mm
13:11 13.4 °C 12.8 °C 1016.1 hPa NNE 11.3 km/h 19.3 km/h 96 % 0 mm
13:16 13.4 °C 12.8 °C 1016.1 hPa NNE 8 km/h 19.3 km/h 96 % 0 mm
13:21 13.4 °C 12.8 °C 1016.1 hPa NNE 9.7 km/h 22.5 km/h 96 % 0 mm
13:26 13.4 °C 12.6 °C 1016.1 hPa NNE 12.9 km/h 25.7 km/h 95 % 0.25 mm
13:31 13.3 °C 12.6 °C 1016.1 hPa NNE 14.5 km/h 22.5 km/h 95 % 0 mm
13:36 13.3 °C 12.6 °C 1016.1 hPa NNE 8 km/h 19.3 km/h 95 % 0 mm
13:41 13.4 °C 12.8 °C 1016.1 hPa NNE 8 km/h 22.5 km/h 96 % 0.25 mm
13:46 13.4 °C 12.6 °C 1016.1 hPa NNE 13.7 km/h 27.8 km/h 95 % 5.59 mm
13:49 13.4 °C 12.7 °C 1016.1 hPa NNE 17.2 km/h 27.8 km/h 95 % 5.33 mm
13:54 13.4 °C 12.7 °C 1016.1 hPa NNE 14 km/h 20.4 km/h 95 % 5.59 mm
13:59 13.5 °C 12.7 °C 1016.1 hPa North 14.3 km/h 24.1 km/h 95 % 5.08 mm
14:04 13.5 °C 12.7 °C 1016.1 hPa NE 15.4 km/h 25.9 km/h 95 % 4.83 mm
14:09 13.6 °C 12.8 °C 1016.1 hPa NE 13.7 km/h 22.2 km/h 95 % 4.83 mm
14:14 13.7 °C 12.9 °C 1016.1 hPa NNE 11.7 km/h 20.4 km/h 95 % 4.83 mm
14:19 13.7 °C 12.7 °C 1016.1 hPa NNE 8.9 km/h 16.1 km/h 94 % 4.57 mm
14:24 13.7 °C 12.8 °C 1016.1 hPa North 15.3 km/h 25.7 km/h 94 % 4.32 mm
14:29 13.8 °C 12.8 °C 1016.1 hPa NNE 15.6 km/h 22.5 km/h 94 % 4.06 mm
14:34 13.8 °C 12.9 °C 1016.1 hPa NNE 16.3 km/h 27.8 km/h 94 % 4.06 mm
14:39 13.9 °C 12.9 °C 1016.1 hPa North 20.4 km/h 29.6 km/h 94 % 3.81 mm
14:49 14 °C 13.1 °C 1016.5 hPa North 14.3 km/h 33.3 km/h 94 % 3.56 mm
14:54 14.1 °C 13.1 °C 1016.8 hPa NE 13.8 km/h 18.5 km/h 94 % 3.05 mm
14:59 14.1 °C 12.9 °C 1016.8 hPa NNE 9 km/h 16.7 km/h 93 % 3.05 mm
15:04 14.2 °C 13.2 °C 1016.8 hPa NNE 11.7 km/h 16.7 km/h 94 % 3.05 mm
15:10 14.2 °C 13.2 °C 1016.8 hPa NE 12.1 km/h 19.3 km/h 94 % 2.54 mm
15:15 14.2 °C 13.1 °C 1016.8 hPa North 11.7 km/h 20.9 km/h 93 % 2.29 mm
15:20 14.3 °C 13.2 °C 1016.8 hPa NE 11.4 km/h 19.3 km/h 93 % 2.03 mm
15:25 14.3 °C 13.1 °C 1016.8 hPa NE 13.5 km/h 20.4 km/h 92 % 1.78 mm
15:30 14.4 °C 13 °C 1016.8 hPa NNE 13.8 km/h 27.8 km/h 91 % 1.52 mm
15:35 14.5 °C 13.2 °C 1016.8 hPa North 13.7 km/h 18.5 km/h 92 % 1.27 mm
15:40 14.6 °C 12.9 °C 1016.8 hPa North 8.2 km/h 24.1 km/h 90 % 1.02 mm
15:45 14.7 °C 12.9 °C 1017.2 hPa NE 10.9 km/h 19.3 km/h 89 % 0.76 mm
15:50 14.7 °C 12.9 °C 1016.8 hPa NE 14.3 km/h 25.9 km/h 89 % 0.51 mm
15:55 14.8 °C 12.9 °C 1017.2 hPa NNE 15.3 km/h 20.4 km/h 88 % 0.25 mm
16:00 14.9 °C 12.7 °C 1017.2 hPa NE 9 km/h 16.7 km/h 87 % 0.25 mm
16:05 14.9 °C 12.8 °C 1017.2 hPa NNE 15 km/h 25.7 km/h 87 % 0 mm
16:10 15 °C 12.7 °C 1017.2 hPa NNW 11.9 km/h 16.7 km/h 86 % 0 mm
16:15 15 °C 12.5 °C 1017.5 hPa North 15.9 km/h 25.9 km/h 85 % 0 mm
16:20 15.1 °C 12.7 °C 1017.5 hPa North 17.1 km/h 25.9 km/h 86 % 0 mm
16:25 15.2 °C 12.7 °C 1017.5 hPa NNE 10.9 km/h 18.5 km/h 85 % 0 mm
16:30 15.2 °C 12.7 °C 1017.5 hPa North 14 km/h 25.9 km/h 85 % 0 mm
16:35 15.3 °C 12.6 °C 1017.8 hPa NNE 20 km/h 27.8 km/h 84 % 0 mm
16:40 15.3 °C 12.2 °C 1017.8 hPa North 11.7 km/h 27.8 km/h 82 % 0 mm
16:45 15.3 °C 12.4 °C 1017.8 hPa NNE 9.2 km/h 19.3 km/h 83 % 0 mm
16:50 15.3 °C 12.4 °C 1017.8 hPa NNE 12.9 km/h 24.1 km/h 83 % 0 mm
16:55 15.3 °C 12.4 °C 1017.8 hPa ENE 11.3 km/h 18.5 km/h 83 % 0 mm
17:01 15.3 °C 12.3 °C 1018.2 hPa NE 10 km/h 18.5 km/h 82 % 0 mm
17:06 15.4 °C 12.3 °C 1018.2 hPa North 13.5 km/h 18.5 km/h 82 % 0 mm
17:11 15.3 °C 12.1 °C 1018.5 hPa North 16.3 km/h 25.7 km/h 81 % 0 mm
17:16 15.3 °C 12.1 °C 1018.5 hPa North 15.8 km/h 27.8 km/h 81 % 0 mm
17:21 15.3 °C 12.1 °C 1018.5 hPa NE 10 km/h 18.5 km/h 81 % 0 mm
17:26 15.2 °C 12.2 °C 1018.5 hPa NE 14.3 km/h 25.9 km/h 82 % 0 mm
17:31 15.2 °C 12.2 °C 1018.8 hPa ENE 10.3 km/h 13 km/h 82 % 0 mm
17:36 15.2 °C 12.1 °C 1018.8 hPa NE 12.7 km/h 20.9 km/h 82 % 0 mm
17:41 15.1 °C 12.1 °C 1018.8 hPa East 11.9 km/h 20.4 km/h 82 % 0 mm
17:46 15.1 °C 12 °C 1018.8 hPa NE 11.7 km/h 18.5 km/h 82 % 0 mm
17:51 15 °C 11.9 °C 1019.2 hPa NE 17.1 km/h 27.8 km/h 82 % 0 mm
17:56 14.9 °C 11.9 °C 1019.2 hPa North 11.3 km/h 18.5 km/h 82 % 0 mm
18:00 14.9 °C 12.1 °C 1019.2 hPa North 8.9 km/h 16.7 km/h 83 % 0 mm
18:05 14.8 °C 11.9 °C 1019.5 hPa NNE 16.3 km/h 24.1 km/h 83 % 0 mm
18:10 14.8 °C 11.9 °C 1019.5 hPa NE 11.6 km/h 20.4 km/h 83 % 0 mm
18:15 14.7 °C 11.9 °C 1019.5 hPa NE 16.4 km/h 24.1 km/h 83 % 0 mm
18:20 14.7 °C 11.6 °C 1019.9 hPa North 16.1 km/h 31.5 km/h 82 % 0 mm
18:25 14.6 °C 11.8 °C 1019.9 hPa North 11.4 km/h 18.5 km/h 83 % 0 mm
18:30 14.6 °C 11.7 °C 1019.9 hPa NNE 10.9 km/h 22.2 km/h 83 % 0 mm
18:35 14.5 °C 11.7 °C 1019.9 hPa North 11.3 km/h 14.8 km/h 83 % 0 mm
18:40 14.5 °C 11.7 °C 1019.9 hPa North 18.3 km/h 22.2 km/h 83 % 0 mm
18:45 14.4 °C 11.6 °C 1019.9 hPa NNE 9.7 km/h 16.1 km/h 83 % 0 mm
18:50 14.4 °C 11.6 °C 1019.9 hPa NNE 11.6 km/h 18.5 km/h 83 % 0 mm
18:55 14.4 °C 11.7 °C 1020.2 hPa NNE 9.8 km/h 16.1 km/h 84 % 0 mm
19:01 14.3 °C 11.5 °C 1020.2 hPa NNE 10.5 km/h 18.5 km/h 83 % 0 mm
19:05 14.3 °C 11.4 °C 1020.5 hPa North 9.7 km/h 25.7 km/h 83 % 0 mm
19:11 14.3 °C 11.4 °C 1020.5 hPa NNE 14.5 km/h 22.5 km/h 83 % 0 mm
19:15 14.2 °C 11.4 °C 1020.5 hPa NNE 14.5 km/h 27.4 km/h 83 % 0 mm
19:20 14.2 °C 11.3 °C 1020.5 hPa North 11.3 km/h 24.1 km/h 83 % 0 mm
19:26 14.1 °C 11.3 °C 1020.5 hPa NNE 9.7 km/h 24.1 km/h 83 % 0 mm
19:27 14.1 °C 11.4 °C 1020.5 hPa NNE 10.3 km/h 22.2 km/h 84 % 0 mm
19:32 14.1 °C 11.2 °C 1020.5 hPa NNE 14.2 km/h 22.2 km/h 83 % 0 mm
19:38 13.9 °C 11.1 °C 1020.9 hPa NNE 12.7 km/h 18.5 km/h 83 % 0 mm
19:43 13.8 °C 11.2 °C 1020.9 hPa NNE 10.3 km/h 20.4 km/h 84 % 0 mm
19:48 13.8 °C 11.1 °C 1020.9 hPa NNE 13.7 km/h 20.4 km/h 84 % 0 mm
19:53 13.8 °C 11.1 °C 1021.2 hPa North 10.5 km/h 18.5 km/h 84 % 0 mm
19:58 13.7 °C 11.1 °C 1021.2 hPa NNE 8.7 km/h 22.5 km/h 84 % 0 mm
20:03 13.7 °C 11 °C 1021.2 hPa NE 12.9 km/h 24.1 km/h 84 % 0 mm
20:08 13.7 °C 11 °C 1021.2 hPa North 11.3 km/h 18.5 km/h 84 % 0 mm
20:13 13.7 °C 11.2 °C 1021.6 hPa North 11.1 km/h 16.7 km/h 85 % 0 mm
20:18 13.6 °C 10.9 °C 1021.2 hPa ENE 15.1 km/h 20.9 km/h 84 % 0 mm
20:23 13.6 °C 10.9 °C 1021.6 hPa NNE 15.3 km/h 20.4 km/h 84 % 0 mm
20:28 13.6 °C 10.9 °C 1021.6 hPa NNE 17.1 km/h 29.6 km/h 84 % 0 mm
20:33 13.5 °C 10.8 °C 1021.9 hPa NE 10.8 km/h 22.5 km/h 84 % 0 mm
20:39 13.5 °C 10.8 °C 1021.6 hPa North 11.7 km/h 18.5 km/h 84 % 0 mm
20:44 13.4 °C 10.8 °C 1021.6 hPa NNE 13.8 km/h 22.2 km/h 84 % 0 mm
20:49 13.4 °C 10.8 °C 1021.9 hPa NNE 16.9 km/h 27.8 km/h 84 % 0 mm
20:54 13.4 °C 10.7 °C 1021.9 hPa NNE 10 km/h 24.1 km/h 84 % 0 mm
20:59 13.3 °C 10.9 °C 1021.9 hPa North 11.7 km/h 16.1 km/h 85 % 0 mm
21:04 13.3 °C 10.9 °C 1021.9 hPa NNE 12.9 km/h 27.4 km/h 85 % 0 mm
21:09 13.3 °C 10.9 °C 1022.2 hPa NNE 9.8 km/h 14.5 km/h 85 % 0 mm
21:14 13.3 °C 10.9 °C 1022.2 hPa NNE 12.7 km/h 25.9 km/h 85 % 0 mm
21:19 13.3 °C 10.6 °C 1021.9 hPa NE 10.8 km/h 18.5 km/h 84 % 0 mm
21:24 13.3 °C 10.6 °C 1021.9 hPa North 10.6 km/h 20.4 km/h 84 % 0 mm
21:29 13.3 °C 10.8 °C 1022.2 hPa NNE 14.3 km/h 24.1 km/h 85 % 0 mm
21:34 13.3 °C 10.8 °C 1022.2 hPa NE 12.2 km/h 22.2 km/h 85 % 0 mm
21:39 13.2 °C 10.6 °C 1022.2 hPa NNE 10.1 km/h 22.2 km/h 84 % 0 mm
21:44 13.2 °C 10.5 °C 1022.2 hPa NNE 12.2 km/h 18.5 km/h 84 % 0 mm
21:49 13.1 °C 10.7 °C 1022.2 hPa North 11.7 km/h 24.1 km/h 85 % 0 mm
21:54 13.1 °C 10.7 °C 1022.2 hPa NNE 13.8 km/h 18.5 km/h 85 % 0 mm
21:59 13.1 °C 10.6 °C 1022.2 hPa NNE 10.9 km/h 22.2 km/h 85 % 0 mm
22:04 13.1 °C 10.6 °C 1022.2 hPa NNE 9 km/h 14.8 km/h 85 % 0 mm
22:09 13.1 °C 10.6 °C 1022.6 hPa NNE 15.8 km/h 22.5 km/h 85 % 0 mm
22:14 13.1 °C 10.6 °C 1022.2 hPa NNW 10.8 km/h 18.5 km/h 85 % 0 mm
22:20 13 °C 10.6 °C 1022.6 hPa North 12.1 km/h 20.4 km/h 85 % 0 mm
22:25 13 °C 10.6 °C 1022.6 hPa NNE 10.9 km/h 20.4 km/h 85 % 0 mm
22:30 12.9 °C 10.5 °C 1022.6 hPa North 11.6 km/h 22.5 km/h 85 % 0 mm
22:35 12.9 °C 10.5 °C 1022.6 hPa NNE 9.5 km/h 17.7 km/h 85 % 0 mm
22:40 12.9 °C 10.4 °C 1022.6 hPa NNE 7.7 km/h 16.7 km/h 85 % 0 mm
22:45 12.8 °C 10.4 °C 1022.6 hPa NE 10.5 km/h 18.5 km/h 85 % 0 mm
22:50 12.8 °C 10.3 °C 1022.6 hPa NNE 10.8 km/h 18.5 km/h 85 % 0 mm
22:55 12.8 °C 10.3 °C 1022.6 hPa NE 6.4 km/h 14.8 km/h 85 % 0 mm
23:00 12.8 °C 10.3 °C 1022.9 hPa NNE 7.9 km/h 18.5 km/h 85 % 0 mm
23:05 12.7 °C 10.4 °C 1022.9 hPa NNE 10 km/h 13 km/h 86 % 0 mm
23:11 12.7 °C 10.4 °C 1022.9 hPa ENE 6.4 km/h 14.8 km/h 86 % 0 mm
23:16 12.7 °C 10.4 °C 1022.9 hPa North 6.3 km/h 12.9 km/h 86 % 0 mm
23:21 12.7 °C 10.4 °C 1022.9 hPa NNE 6.6 km/h 11.3 km/h 86 % 0 mm
23:26 12.7 °C 10.4 °C 1022.9 hPa NE 10 km/h 25.9 km/h 86 % 0 mm
23:31 12.7 °C 10.4 °C 1022.9 hPa NE 7.9 km/h 16.7 km/h 86 % 0 mm
23:36 12.8 °C 10.5 °C 1022.9 hPa NNE 8.4 km/h 16.7 km/h 86 % 0 mm
23:41 12.8 °C 10.5 °C 1023.2 hPa NNE 5.6 km/h 9.3 km/h 86 % 0 mm
23:46 12.8 °C 10.5 °C 1023.2 hPa NNE 3.9 km/h 7.4 km/h 86 % 0 mm
23:51 12.8 °C 10.5 °C 1022.9 hPa NNE 3.5 km/h 9.3 km/h 86 % 0 mm
23:56 12.8 °C 10.6 °C 1022.9 hPa NNE 6.4 km/h 9.3 km/h 86 % 0 mm
23:57 12.8 °C 10.6 °C 1022.9 hPa North 9.2 km/h 14.8 km/h 86 % 0 mm
Crab Meadow Weather
Compliments of Weather Underground - 3 mb

Script developed by  Jim McMurry - jmcmurry@mwt.net Adapted for the template by  Wim van der Kuil - Leuven-Template.eu

Astronomy: Space missions to Mars suggest that it once had water.